Wahoo, NE

10:15 AM CST on January 23, 2018 (GMT -0600)
Wahoo Municipal

Weather History for KAHQ - March, 2014

Change the Weather History Date:

Saturday, March 15, 2014

  Actual Average Record
Temperature  
Mean Temperature 48 °F -  
Max Temperature 67 °F 49 °F 80 °F (2015)
Min Temperature 29 °F 26 °F 10 °F (1988)
Degree Days  
Heating Degree Days 17    
Moisture  
Dew Point 22 °F    
Average Humidity 51    
Maximum Humidity 87    
Minimum Humidity 15    
Precipitation  
Precipitation 0.00 in - - ()
Sea Level Pressure  
Sea Level Pressure 29.93 in    
Wind  
Wind Speed 10 mph (ENE)    
Max Wind Speed 33 mph    
Max Gust Speed 38 mph    
Visibility 10 miles    
Events Snow    
Averages and records for this station are not official NWS values.
T = Trace of Precipitation, MM = Missing Value Source: NWS Daily Summary

Daily Weather History Graph

Daily Weather History Graph

Search for Another Location

Airport or City:

Trip Planner

Search our weather history database for the weather conditions in past years. The results will help you decide how hot, cold, wet, or windy it might be!

Date:

Astronomy

Mar. 15, 2014 Rise Set
Actual Time 7:38 AM CDT 7:33 PM CDT
Civil Twilight 7:10 AM CDT 8:00 PM CDT
Nautical Twilight 6:38 AM CDT 8:32 PM CDT
Astronomical Twilight 6:06 AM CDT 9:05 PM CDT
Moon 6:53 PM CDT (3/15) 6:50 AM CDT (3/15)
Length of Visible Light 12h 50m
Length of Day
11h 55m
Waxing Gibbous, 99% of the Moon is Illuminated
Mar 15
Waxing Gibbous
Mar 16
Full
Mar 23
Last Quarter
Mar 30
New
Apr 7
First Quarter

Hourly Weather History & Observations

Time (CDT) Temp. Windchill Dew Point Humidity Pressure Visibility Wind Dir Wind Speed Gust Speed Precip Events Conditions
12:15 AM 32.9 °F 29.8 °F 17.4 °F 53% 29.91 in 10.0 mi ESE 3.5 mph - N/A   Clear
12:35 AM 32.5 °F 28.1 °F 17.4 °F 54% 29.91 in 10.0 mi East 4.6 mph - N/A   Clear
12:55 AM 32.7 °F 28.3 °F 17.6 °F 54% 29.90 in 10.0 mi ESE 4.6 mph - N/A   Clear
1:15 AM 32.5 °F - 18.0 °F 55% 29.90 in 10.0 mi Calm Calm - N/A   Clear
1:35 AM 33.1 °F - 17.8 °F 53% 29.90 in 10.0 mi Calm Calm - N/A   Clear
1:55 AM 32.0 °F - 17.6 °F 55% 29.90 in 10.0 mi Calm Calm - N/A   Clear
2:15 AM 33.4 °F 29.1 °F 18.5 °F 54% 29.89 in 10.0 mi East 4.6 mph - N/A   Clear
2:35 AM 30.7 °F - 18.3 °F 60% 29.89 in 10.0 mi Calm Calm - N/A   Clear
2:55 AM 32.9 °F 29.8 °F 18.3 °F 55% 29.89 in 10.0 mi ESE 3.5 mph - N/A   Clear
3:15 AM 32.2 °F 28.9 °F 17.6 °F 55% 29.89 in 10.0 mi ESE 3.5 mph - N/A   Clear
3:35 AM 32.0 °F - 17.8 °F 56% 29.88 in 10.0 mi Calm Calm - N/A   Clear
3:55 AM 31.8 °F 24.6 °F 19.6 °F 61% 29.86 in 10.0 mi East 8.1 mph - N/A   Clear
4:15 AM 32.4 °F 24.6 °F 20.3 °F 61% 29.85 in 10.0 mi ESE 9.2 mph - N/A   Clear
4:35 AM 32.7 °F 25.7 °F 21.0 °F 62% 29.85 in 10.0 mi ESE 8.1 mph - N/A   Clear
4:55 AM 32.4 °F 26.9 °F 20.7 °F 62% 29.84 in 10.0 mi ESE 5.8 mph - N/A   Clear
5:15 AM 33.1 °F 26.1 °F 20.8 °F 61% 29.84 in 10.0 mi ESE 8.1 mph - N/A   Clear
5:35 AM 32.9 °F 25.9 °F 20.3 °F 60% 29.83 in 10.0 mi ESE 8.1 mph - N/A   Clear
5:55 AM 30.9 °F 26.2 °F 19.8 °F 63% 29.83 in 10.0 mi ESE 4.6 mph - N/A   Clear
6:15 AM 31.3 °F - 20.3 °F 64% 29.83 in 10.0 mi Calm Calm - N/A   Clear
6:35 AM 31.8 °F 25.4 °F 19.8 °F 61% 29.83 in 10.0 mi East 6.9 mph - N/A   Clear
6:55 AM 30.2 °F 26.7 °F 19.4 °F 64% 29.83 in 10.0 mi East 3.5 mph - N/A   Clear
7:15 AM 31.3 °F 26.6 °F 19.9 °F 63% 29.84 in 10.0 mi East 4.6 mph - N/A   Clear
7:35 AM 30.2 °F - 19.8 °F 65% 29.84 in 10.0 mi Calm Calm - N/A   Clear
7:55 AM 29.7 °F 26.1 °F 19.8 °F 67% 29.85 in 10.0 mi East 3.5 mph - N/A   Scattered Clouds
8:15 AM 31.1 °F 25.4 °F 20.7 °F 65% 29.85 in 10.0 mi ESE 5.8 mph - N/A   Clear
8:35 AM 33.3 °F 28.9 °F 22.8 °F 66% 29.85 in 10.0 mi ESE 4.6 mph - N/A   Clear
8:55 AM 37.2 °F 31.9 °F 22.6 °F 56% 29.85 in 10.0 mi ESE 6.9 mph - N/A   Clear
9:15 AM 39.9 °F 33.9 °F 23.0 °F 51% 29.85 in 10.0 mi ESE 9.2 mph - N/A   Clear
9:35 AM 41.9 °F 34.0 °F 22.5 °F 46% 29.85 in 10.0 mi SE 16.1 mph - N/A   Clear
9:55 AM 43.5 °F 37.1 °F 21.9 °F 42% 29.85 in 10.0 mi ESE 12.7 mph - N/A   Clear
10:15 AM 45.9 °F 40.0 °F 21.6 °F 38% 29.85 in 10.0 mi SE 12.7 mph - N/A   Clear
10:35 AM 47.3 °F - 20.7 °F 35% 29.85 in 10.0 mi SE 11.5 mph - N/A   Clear
10:55 AM 48.4 °F - 20.7 °F 33% 29.85 in 10.0 mi SE 13.8 mph - N/A   Clear
11:15 AM 50.4 °F - 20.5 °F 31% 29.84 in 10.0 mi SE 15.0 mph - N/A   Clear
11:35 AM 52.7 °F - 21.0 °F 29% 29.84 in 10.0 mi SSE 10.4 mph - N/A   Clear
11:55 AM 54.7 °F - 21.0 °F 27% 29.84 in 10.0 mi SE 9.2 mph - N/A   Clear
12:15 PM 57.4 °F - 20.5 °F 24% 29.83 in 10.0 mi SE 9.2 mph - N/A   Clear
12:35 PM 60.1 °F - 20.5 °F 22% 29.83 in 10.0 mi East 9.2 mph - N/A   Clear
1:15 PM 64.6 °F - 18.3 °F 17% 29.83 in 10.0 mi Calm Calm - N/A   Clear
1:35 PM 67.5 °F - 18.1 °F 15% 29.82 in 10.0 mi SSW 11.5 mph 16.1 mph N/A   Clear
1:55 PM 67.6 °F - 17.8 °F 15% 29.81 in 10.0 mi WSW 10.4 mph - N/A   Clear
2:15 PM 64.9 °F - 21.2 °F 19% 29.80 in 10.0 mi NE 19.6 mph 27.6 mph N/A   Clear
2:35 PM 63.5 °F - 22.1 °F 21% 29.81 in 10.0 mi ENE 19.6 mph - N/A   Clear
2:55 PM 63.1 °F - 22.3 °F 21% 29.80 in 10.0 mi ENE 19.6 mph 24.2 mph N/A   Clear
3:15 PM 62.8 °F - 23.4 °F 22% 29.81 in 10.0 mi NE 23.0 mph 27.6 mph N/A   Clear
3:35 PM 61.2 °F - 26.6 °F 27% 29.82 in 10.0 mi NE 26.5 mph 33.4 mph N/A   Clear
3:55 PM 57.9 °F - 26.6 °F 30% 29.84 in 10.0 mi NE 29.9 mph 36.8 mph N/A   Clear
4:15 PM 57.4 °F - 25.9 °F 30% 29.86 in 10.0 mi NNE 28.8 mph 38.0 mph N/A   Clear
4:35 PM 55.2 °F - 24.8 °F 31% 29.88 in 10.0 mi NE 29.9 mph 36.8 mph N/A   Clear
4:55 PM 52.7 °F - 24.4 °F 33% 29.89 in 10.0 mi NNE 33.4 mph 38.0 mph N/A   Clear
5:15 PM 48.6 °F - 24.1 °F 38% 29.92 in 10.0 mi NNE 31.1 mph 38.0 mph N/A   Clear
5:35 PM 48.4 °F - 24.1 °F 39% 29.93 in 10.0 mi NNE 28.8 mph 36.8 mph N/A   Clear
5:55 PM 46.6 °F - 24.6 °F 42% 29.95 in 10.0 mi NNE 27.6 mph 35.7 mph N/A   Clear
6:15 PM 45.5 °F 36.1 °F 24.3 °F 43% 29.97 in 10.0 mi NE 28.8 mph 35.7 mph N/A   Clear
6:35 PM 44.6 °F 35.9 °F 24.1 °F 44% 30.00 in 10.0 mi NNE 23.0 mph 29.9 mph N/A   Clear
6:55 PM 42.3 °F 32.2 °F 25.2 °F 51% 30.01 in 10.0 mi NNE 26.5 mph 32.2 mph N/A   Clear
7:15 PM 40.1 °F 29.5 °F 25.5 °F 56% 30.04 in 10.0 mi NNE 25.3 mph 32.2 mph N/A   Clear
7:35 PM 37.8 °F 25.7 °F 24.8 °F 60% 30.06 in 10.0 mi NNE 28.8 mph 34.5 mph N/A   Clear
7:55 PM 36.5 °F 25.2 °F 25.2 °F 64% 30.09 in 10.0 mi NNE 23.0 mph 33.4 mph N/A   Clear
8:15 PM 35.8 °F 25.4 °F 25.2 °F 65% 30.11 in 10.0 mi NNE 18.4 mph 28.8 mph N/A   Clear
8:35 PM 33.8 °F 22.2 °F 24.8 °F 70% 30.14 in 10.0 mi NNE 20.7 mph 26.5 mph N/A   Scattered Clouds
8:55 PM 33.1 °F 20.6 °F 23.7 °F 68% 30.16 in 10.0 mi North 23.0 mph 32.2 mph N/A   Clear
9:15 PM 32.4 °F 19.4 °F 23.5 °F 70% 30.18 in 10.0 mi NNE 24.2 mph 31.1 mph N/A   Clear
9:35 PM 32.5 °F 19.9 °F 24.4 °F 72% 30.18 in 10.0 mi NNE 23.0 mph 28.8 mph N/A   Mostly Cloudy
9:55 PM 32.0 °F 19.2 °F 25.2 °F 76% 30.19 in 10.0 mi NNE 23.0 mph 31.1 mph N/A   Overcast
10:15 PM 31.8 °F 19.3 °F 25.5 °F 78% 30.19 in 7.0 mi North 21.9 mph 31.1 mph N/A Snow Light Snow
10:35 PM 31.1 °F 18.3 °F 26.4 °F 83% 30.21 in 4.0 mi North 21.9 mph 28.8 mph N/A Snow Light Snow
10:55 PM 30.9 °F 19.4 °F 26.2 °F 83% 30.24 in 5.0 mi North 17.3 mph 25.3 mph N/A Snow Light Snow
11:15 PM 30.2 °F 17.8 °F 25.7 °F 83% 30.24 in 4.0 mi NNE 19.6 mph 27.6 mph N/A Snow Light Snow
11:35 PM 29.7 °F 17.1 °F 26.2 °F 87% 30.24 in 0.8 mi North 19.6 mph 25.3 mph N/A Snow Snow
11:55 PM 29.1 °F 16.4 °F 25.7 °F 87% 30.25 in 1.5 mi North 19.6 mph 27.6 mph N/A Snow Light Snow